User: anonymous   Login
Location: Lafig�re
(44.4503°N, 4.0357°E)
Time: 04:59:26
(UTC+00:00)
Language:

Okean 2 Rocket - Orbit

View from above orbital plane
View from above orbital plane
View from above satellite
View from above satellite

Ground track
Ground track

The orbit data is extracted from the following two-line orbital elements,

1 20511U 90018B   20333.81507639  .00000122  00000-0  13024-4 0  9996
2 20511  82.5248 220.0647 0016183 301.7901 125.4891 14.80056475658527
Epoch (UTC): 28 November 2020 19:33:42
Eccentricity: 0.0016183
inclination: 82.5248°
perigee height: 618 km
apogee height: 640 km
right ascension of ascending node: 220.0647°
argument of perigee: 301.7901°
revolutions per day: 14.80056475
mean anomaly at epoch: 125.4891°
orbit number at epoch: 65852

The dashed part of the orbit path shows where the satellite is in the earth's shadow,  

DLR